,,PA_Meas_PMT16A,,PR_Meas_QMR101_102,,RH_Meas_QMH101,,SR_Meas_QMS101,,TA_Meas_QMH101,,GenWind,,GenWind,
time,status,PA,status,PR,status,RH,status,SR,status,TA,status,DirAvg,status,SpdAvg,
2013-10-29, 00:00:05,VALID,920.37,VALID,0,VALID,96.7564,VALID,0,VALID,19.2168,VALID,97,VALID,0,
2013-10-29, 00:01:05,VALID,920.373,VALID,0,VALID,96.7488,VALID,0,VALID,19.2168,VALID,97,VALID,0,
2013-10-29, 00:02:05,VALID,920.412,VALID,0,VALID,96.764,VALID,0,VALID,19.1973,VALID,97,VALID,0,
2013-10-29, 00:03:05,VALID,920.389,VALID,0,VALID,96.7716,VALID,0,VALID,19.1973,VALID,97,VALID,0,
2013-10-29, 00:04:05,VALID,920.404,VALID,0,VALID,96.7716,VALID,0,VALID,19.1778,VALID,97,VALID,0,
2013-10-29, 00:05:05,VALID,920.369,VALID,0,VALID,96.764,VALID,0,VALID,19.1778,VALID,97,VALID,0,
2013-10-29, 00:06:05,VALID,920.372,VALID,0,VALID,96.7945,VALID,0,VALID,19.1583,VALID,97,VALID,0,
2013-10-29, 00:07:05,VALID,920.34,VALID,0,VALID,96.7793,VALID,0,VALID,19.1778,VALID,97,VALID,0,
2013-10-29, 00:08:05,VALID,920.301,VALID,0,VALID,96.7716,VALID,0,VALID,19.1778,VALID,97,VALID,0,
2013-10-29, 00:09:05,VALID,920.29,VALID,0,VALID,96.7869,VALID,0,VALID,19.1778,VALID,97,VALID,0,
2013-10-29, 00:10:05,VALID,920.247,VALID,0,VALID,96.7945,VALID,0,VALID,19.1583,VALID,97,VALID,0,
2013-10-29, 00:11:05,VALID,920.251,VALID,0,VALID,96.7793,VALID,0,VALID,19.1388,VALID,97,VALID,0,
2013-10-29, 00:12:05,VALID,920.208,VALID,0,VALID,96.8021,VALID,0,VALID,19.1388,VALID,97,VALID,0,
2013-10-29, 00:13:05,VALID,920.193,VALID,0,VALID,96.7945,VALID,0,VALID,19.1388,VALID,97,VALID,0,
2013-10-29, 00:14:05,VALID,920.19,VALID,0,VALID,96.7945,VALID,0,VALID,19.1583,VALID,97,VALID,0,
2013-10-29, 00:15:05,VALID,920.197,VALID,0,VALID,96.8098,VALID,0,VALID,19.1388,VALID,97,VALID,0,
2013-10-29, 00:16:05,VALID,920.175,VALID,0,VALID,96.8174,VALID,0,VALID,19.1388,VALID,97,VALID,0,
2013-10-29, 00:17:05,VALID,920.161,VALID,0,VALID,96.8098,VALID,0,VALID,19.1388,VALID,97,VALID,0,
2013-10-29, 00:18:05,VALID,920.111,VALID,0,VALID,96.7869,VALID,0,VALID,19.1193,VALID,97,VALID,0,
2013-10-29, 00:19:05,VALID,920.086,VALID,0,VALID,96.8021,VALID,0,VALID,19.0608,VALID,97,VALID,0,
2013-10-29, 00:20:05,VALID,920.048,VALID,0,VALID,96.8326,VALID,0,VALID,19.0803,VALID,97,VALID,0,
2013-10-29, 00:21:05,VALID,920.051,VALID,0,VALID,96.8326,VALID,0,VALID,19.0803,VALID,97,VALID,0,
2013-10-29, 00:22:05,VALID,919.993,VALID,0,VALID,96.8479,VALID,0,VALID,19.0608,VALID,97,VALID,0,
2013-10-29, 00:23:05,VALID,919.956,VALID,0,VALID,96.8479,VALID,0,VALID,19.0803,VALID,97,VALID,0,
2013-10-29, 00:24:05,VALID,919.96,VALID,0,VALID,96.8326,VALID,0,VALID,19.0608,VALID,97,VALID,0,
2013-10-29, 00:25:05,VALID,919.959,VALID,0,VALID,96.8631,VALID,0,VALID,19.0608,VALID,97,VALID,0,
2013-10-29, 00:26:05,VALID,919.961,VALID,0,VALID,96.8631,VALID,0,VALID,19.0803,VALID,97,VALID,0,
2013-10-29, 00:27:05,VALID,919.971,VALID,0,VALID,96.8555,VALID,0,VALID,19.0803,VALID,97,VALID,0,
2013-10-29, 00:28:05,VALID,919.96,VALID,0,VALID,96.886,VALID,0,VALID,19.0803,VALID,97,VALID,0,
2013-10-29, 00:29:05,VALID,919.906,VALID,0,VALID,96.8936,VALID,0,VALID,19.0608,VALID,97,VALID,0,
2013-10-29, 00:30:05,VALID,919.906,VALID,0,VALID,96.886,VALID,0,VALID,19.0998,VALID,97,VALID,0,
2013-10-29, 00:31:05,VALID,919.905,VALID,0,VALID,96.8936,VALID,0,VALID,19.1193,VALID,97,VALID,0,
2013-10-29, 00:32:05,VALID,919.866,VALID,0,VALID,96.9165,VALID,0,VALID,19.1193,VALID,97,VALID,0,
2013-10-29, 00:33:05,VALID,919.829,VALID,0,VALID,96.9394,VALID,0,VALID,19.0998,VALID,97,VALID,0,
2013-10-29, 00:34:05,VALID,919.797,VALID,0,VALID,96.9165,VALID,0,VALID,19.0608,VALID,97,VALID,0,
2013-10-29, 00:35:05,VALID,919.775,VALID,0,VALID,96.9089,VALID,0,VALID,19.0608,VALID,97,VALID,0,
2013-10-29, 00:36:05,VALID,919.731,VALID,0,VALID,96.9241,VALID,0,VALID,19.0817,VALID,97,VALID,0,
2013-10-29, 00:37:05,VALID,919.746,VALID,0,VALID,96.9241,VALID,0,VALID,19.0608,VALID,97,VALID,0,
2013-10-29, 00:38:05,VALID,919.716,VALID,0,VALID,96.9317,VALID,0,VALID,19.0413,VALID,97,VALID,0,
2013-10-29, 00:39:05,VALID,919.714,VALID,0,VALID,96.947,VALID,0,VALID,19.0608,VALID,97,VALID,0,
2013-10-29, 00:40:05,VALID,919.691,VALID,0,VALID,96.9622,VALID,0,VALID,19.0413,VALID,97,VALID,0,
2013-10-29, 00:41:05,VALID,919.676,VALID,0,VALID,96.9622,VALID,0,VALID,19.0608,VALID,97,VALID,0,
2013-10-29, 00:42:05,VALID,919.656,VALID,0,VALID,96.9775,VALID,0,VALID,19.0593,VALID,97,VALID,0,
2013-10-29, 00:43:05,VALID,919.611,VALID,0,VALID,96.9546,VALID,0,VALID,19.0608,VALID,97,VALID,0,
2013-10-29, 00:44:05,VALID,919.609,VALID,0,VALID,96.9698,VALID,0,VALID,19.0608,VALID,97,VALID,0,
2013-10-29, 00:45:05,VALID,919.594,VALID,0,VALID,96.9622,VALID,0,VALID,19.1193,VALID,97,VALID,0,
2013-10-29, 00:46:05,VALID,919.59,VALID,0,VALID,96.9851,VALID,0,VALID,19.1193,VALID,97,VALID,0,
2013-10-29, 00:47:05,VALID,919.592,VALID,0,VALID,96.9851,VALID,0,VALID,19.1388,VALID,97,VALID,0,
2013-10-29, 00:48:05,VALID,919.583,VALID,0,VALID,96.9851,VALID,0,VALID,19.1193,VALID,97,VALID,0,
2013-10-29, 00:49:05,VALID,919.624,VALID,0,VALID,96.9851,VALID,0,VALID,19.1193,VALID,97,VALID,0,
2013-10-29, 00:50:05,VALID,919.605,VALID,0,VALID,96.9927,VALID,0,VALID,19.0983,VALID,97,VALID,0,
2013-10-29, 00:51:05,VALID,919.616,VALID,0,VALID,97.0003,VALID,0,VALID,19.1178,VALID,97,VALID,0,
2013-10-29, 00:52:05,VALID,919.633,VALID,0,VALID,97.0003,VALID,0,VALID,19.1178,VALID,97,VALID,0,
2013-10-29, 00:53:05,VALID,919.619,VALID,0,VALID,97.008,VALID,0.107441,VALID,19.1373,VALID,97,VALID,0,
2013-10-29, 00:54:05,VALID,919.639,VALID,0,VALID,97.0156,VALID,0,VALID,19.1178,VALID,97,VALID,0,
2013-10-29, 00:55:05,VALID,919.657,VALID,0,VALID,97.0156,VALID,0.107441,VALID,19.0983,VALID,97,VALID,0,
2013-10-29, 00:56:05,VALID,919.653,VALID,0,VALID,97.0003,VALID,0,VALID,19.0788,VALID,97,VALID,0,
2013-10-29, 00:57:05,VALID,919.644,VALID,0,VALID,97.008,VALID,0,VALID,19.0983,VALID,97,VALID,0,
2013-10-29, 00:58:05,VALID,919.612,VALID,0,VALID,97.0156,VALID,0,VALID,19.0998,VALID,97,VALID,0,
2013-10-29, 00:59:05,VALID,919.606,VALID,0,VALID,97.0232,VALID,0,VALID,19.0788,VALID,97,VALID,0,
2013-10-29, 01:00:05,VALID,919.603,VALID,0,VALID,97.0461,VALID,0,VALID,19.0398,VALID,97,VALID,0,
2013-10-29, 01:01:05,VALID,919.591,VALID,0,VALID,97.0308,VALID,0,VALID,19.0398,VALID,97,VALID,0,
2013-10-29, 01:02:05,VALID,919.566,VALID,0,VALID,97.0156,VALID,0,VALID,19.0203,VALID,97,VALID,0,
2013-10-29, 01:03:05,VALID,919.557,VALID,0,VALID,97.0385,VALID,0,VALID,19.0398,VALID,97,VALID,0,
2013-10-29, 01:04:05,VALID,919.582,VALID,0,VALID,97.0156,VALID,0,VALID,19.0203,VALID,97,VALID,0,
2013-10-29, 01:05:05,VALID,919.55,VALID,0,VALID,97.0385,VALID,0,VALID,18.9633,VALID,97,VALID,0,
2013-10-29, 01:06:05,VALID,919.607,VALID,0,VALID,97.0537,VALID,0,VALID,18.9633,VALID,97,VALID,0,
2013-10-29, 01:07:05,VALID,919.604,VALID,0,VALID,97.0385,VALID,0,VALID,18.9633,VALID,97,VALID,0,
2013-10-29, 01:08:05,VALID,919.622,VALID,0,VALID,97.0461,VALID,0,VALID,18.9633,VALID,97,VALID,0,
2013-10-29, 01:09:05,VALID,919.617,VALID,0,VALID,97.0461,VALID,0,VALID,18.9243,VALID,97,VALID,0,
2013-10-29, 01:10:05,VALID,919.607,VALID,0,VALID,97.0461,VALID,0,VALID,18.9438,VALID,97,VALID,0,
2013-10-29, 01:11:05,VALID,919.607,VALID,0,VALID,97.0613,VALID,0,VALID,18.9842,VALID,97,VALID,0,
2013-10-29, 01:12:05,VALID,919.581,VALID,0,VALID,97.0461,VALID,0,VALID,18.9828,VALID,97,VALID,0,
2013-10-29, 01:13:05,VALID,919.607,VALID,0,VALID,97.0461,VALID,0,VALID,19.0218,VALID,97,VALID,0,
2013-10-29, 01:14:05,VALID,919.586,VALID,0,VALID,97.069,VALID,0,VALID,19.0413,VALID,97,VALID,0,
2013-10-29, 01:15:05,VALID,919.586,VALID,0,VALID,97.0766,VALID,0,VALID,19.0203,VALID,97,VALID,0,
2013-10-29, 01:16:05,VALID,919.58,VALID,0,VALID,97.069,VALID,0,VALID,19.0413,VALID,97,VALID,0,
2013-10-29, 01:17:05,VALID,919.542,VALID,0,VALID,97.069,VALID,0,VALID,19.0608,VALID,97,VALID,0,
2013-10-29, 01:18:05,VALID,919.514,VALID,0,VALID,97.0613,VALID,0,VALID,19.0608,VALID,97,VALID,0,
2013-10-29, 01:19:05,VALID,919.466,VALID,0,VALID,97.0766,VALID,0,VALID,19.0608,VALID,97,VALID,0,
2013-10-29, 01:20:05,VALID,919.438,VALID,0,VALID,97.0613,VALID,0.107441,VALID,19.0593,VALID,97,VALID,0,
2013-10-29, 01:21:05,VALID,919.438,VALID,0,VALID,97.069,VALID,0,VALID,19.0608,VALID,97,VALID,0,
2013-10-29, 01:22:05,VALID,919.374,VALID,0,VALID,97.069,VALID,0,VALID,19.0608,VALID,97,VALID,0,
2013-10-29, 01:23:05,VALID,919.332,VALID,0,VALID,97.0766,VALID,0,VALID,19.0413,VALID,97,VALID,0,
2013-10-29, 01:24:05,VALID,919.309,VALID,0,VALID,97.0918,VALID,0,VALID,19.0218,VALID,111,VALID,0,
2013-10-29, 01:25:05,VALID,919.317,VALID,0,VALID,97.0842,VALID,0,VALID,19.0413,VALID,122,VALID,0,
2013-10-29, 01:26:05,VALID,919.316,VALID,0,VALID,97.0842,VALID,0,VALID,19.0203,VALID,126,VALID,0,
2013-10-29, 01:27:05,VALID,919.317,VALID,0,VALID,97.0918,VALID,0,VALID,19.0218,VALID,125,VALID,0,
2013-10-29, 01:28:05,VALID,919.295,VALID,0,VALID,97.0918,VALID,0,VALID,19.0218,VALID,125,VALID,0,
2013-10-29, 01:29:05,VALID,919.329,VALID,0,VALID,97.0994,VALID,0,VALID,19.0218,VALID,125,VALID,0,
2013-10-29, 01:30:05,VALID,919.303,VALID,0,VALID,97.0918,VALID,0,VALID,19.0008,VALID,125,VALID,0,
2013-10-29, 01:31:05,VALID,919.294,VALID,0,VALID,97.0994,VALID,0,VALID,19.0218,VALID,125,VALID,0,
2013-10-29, 01:32:05,VALID,919.293,VALID,0,VALID,97.0918,VALID,0,VALID,19.0008,VALID,125,VALID,0,
2013-10-29, 01:33:05,VALID,919.307,VALID,0,VALID,97.1071,VALID,0,VALID,19.0008,VALID,125,VALID,0,
2013-10-29, 01:34:05,VALID,919.312,VALID,0,VALID,97.1071,VALID,0,VALID,19.0218,VALID,125,VALID,0,
2013-10-29, 01:35:05,VALID,919.33,VALID,0,VALID,97.0994,VALID,0,VALID,19.0218,VALID,125,VALID,0,
2013-10-29, 01:36:05,VALID,919.324,VALID,0,VALID,97.1071,VALID,0,VALID,19.0008,VALID,125,VALID,0,
2013-10-29, 01:37:05,VALID,919.328,VALID,0,VALID,97.1223,VALID,0,VALID,19.0023,VALID,125,VALID,0,
2013-10-29, 01:38:05,VALID,919.257,VALID,0,VALID,97.1071,VALID,0,VALID,18.9828,VALID,125,VALID,0,
2013-10-29, 01:39:05,VALID,919.265,VALID,0,VALID,97.0994,VALID,0,VALID,18.9633,VALID,125,VALID,0,
2013-10-29, 01:40:05,VALID,919.257,VALID,0,VALID,97.0994,VALID,0,VALID,18.9633,VALID,125,VALID,0,
2013-10-29, 01:41:05,VALID,919.223,VALID,0,VALID,97.1071,VALID,0,VALID,18.9633,VALID,125,VALID,0,
2013-10-29, 01:42:05,VALID,919.165,VALID,0,VALID,97.1299,VALID,0,VALID,18.9633,VALID,125,VALID,0,
2013-10-29, 01:43:05,VALID,919.185,VALID,0,VALID,97.1071,VALID,0,VALID,18.9828,VALID,125,VALID,0,
2013-10-29, 01:44:05,VALID,919.159,VALID,0,VALID,97.1376,VALID,0,VALID,18.9828,VALID,128,VALID,0,
2013-10-29, 01:45:05,VALID,919.163,VALID,0,VALID,97.1147,VALID,0,VALID,18.9828,VALID,128,VALID,0,
2013-10-29, 01:46:05,VALID,919.144,VALID,0,VALID,97.1452,VALID,0,VALID,18.9828,VALID,128,VALID,0,
2013-10-29, 01:47:05,VALID,919.131,VALID,0,VALID,97.1223,VALID,0,VALID,18.9828,VALID,128,VALID,0,
2013-10-29, 01:48:05,VALID,919.141,VALID,0,VALID,97.1299,VALID,0,VALID,18.9828,VALID,128,VALID,0,
2013-10-29, 01:49:05,VALID,919.099,VALID,0,VALID,97.1299,VALID,0,VALID,18.9828,VALID,128,VALID,0,
2013-10-29, 01:50:05,VALID,919.145,VALID,0,VALID,97.1299,VALID,0,VALID,19.0023,VALID,128,VALID,0,
2013-10-29, 01:51:05,VALID,919.136,VALID,0,VALID,97.1299,VALID,0,VALID,19.0218,VALID,128,VALID,0,
2013-10-29, 01:52:05,VALID,919.156,VALID,0,VALID,97.1299,VALID,0,VALID,19.0008,VALID,128,VALID,0,
2013-10-29, 01:53:05,VALID,919.149,VALID,0,VALID,97.1376,VALID,0,VALID,19.0413,VALID,128,VALID,0,
2013-10-29, 01:54:05,VALID,919.164,VALID,0,VALID,97.1452,VALID,0,VALID,19.0218,VALID,128,VALID,0,
2013-10-29, 01:55:05,VALID,919.16,VALID,0,VALID,97.1223,VALID,0,VALID,18.9828,VALID,128,VALID,0,
2013-10-29, 01:56:05,VALID,919.175,VALID,0,VALID,97.1299,VALID,0,VALID,18.9828,VALID,128,VALID,0,
2013-10-29, 01:57:05,VALID,919.124,VALID,0,VALID,97.1681,VALID,0,VALID,18.9828,VALID,128,VALID,0,
2013-10-29, 01:58:05,VALID,919.115,VALID,0,VALID,97.1299,VALID,0,VALID,18.9438,VALID,119,VALID,0,
2013-10-29, 01:59:05,VALID,919.122,VALID,0,VALID,97.1452,VALID,0,VALID,18.9048,VALID,121,VALID,0,
2013-10-29, 02:00:05,VALID,919.092,VALID,0,VALID,97.1452,VALID,0,VALID,18.9257,VALID,126,VALID,0,
2013-10-29, 02:01:05,VALID,919.096,VALID,0,VALID,97.1528,VALID,0,VALID,18.9048,VALID,127,VALID,0,
2013-10-29, 02:02:05,VALID,919.083,VALID,0,VALID,97.1452,VALID,0,VALID,18.8853,VALID,128,VALID,0,
2013-10-29, 02:03:05,VALID,919.069,VALID,0,VALID,97.1452,VALID,0,VALID,18.8853,VALID,128,VALID,0,
2013-10-29, 02:04:05,VALID,919.066,VALID,0,VALID,97.1528,VALID,0,VALID,18.9243,VALID,129,VALID,0,
2013-10-29, 02:05:05,VALID,919.038,VALID,0,VALID,97.1452,VALID,0,VALID,18.9647,VALID,129,VALID,0,
2013-10-29, 02:06:05,VALID,919.034,VALID,0,VALID,97.1604,VALID,0,VALID,18.9438,VALID,127,VALID,0,
2013-10-29, 02:07:05,VALID,919.029,VALID,0,VALID,97.1604,VALID,0,VALID,18.9828,VALID,126,VALID,0,
2013-10-29, 02:08:05,VALID,919.059,VALID,0,VALID,97.1528,VALID,0,VALID,19.0427,VALID,129,VALID,0,
2013-10-29, 02:09:05,VALID,919.062,VALID,0,VALID,97.1452,VALID,0,VALID,19.0413,VALID,133,VALID,0,
2013-10-29, 02:10:05,VALID,919.071,VALID,0,VALID,97.1604,VALID,0,VALID,19.0608,VALID,138,VALID,0,
2013-10-29, 02:11:05,VALID,919.084,VALID,0,VALID,97.1452,VALID,0,VALID,19.0413,VALID,126,VALID,0,
2013-10-29, 02:12:05,VALID,919.077,VALID,0,VALID,97.1681,VALID,0,VALID,19.0413,VALID,126,VALID,0,
2013-10-29, 02:13:05,VALID,919.053,VALID,0,VALID,97.1604,VALID,0,VALID,19.0413,VALID,126,VALID,0,
2013-10-29, 02:14:05,VALID,919.058,VALID,0,VALID,97.1681,VALID,0,VALID,19.0218,VALID,129,VALID,0,
2013-10-29, 02:15:05,VALID,919.057,VALID,0,VALID,97.1681,VALID,0,VALID,19.0232,VALID,132,VALID,0,
2013-10-29, 02:16:05,VALID,919.02,VALID,0,VALID,97.1604,VALID,0,VALID,19.0023,VALID,138,VALID,0,
2013-10-29, 02:17:05,VALID,919.046,VALID,0,VALID,97.1757,VALID,0,VALID,18.9828,VALID,128,VALID,0,
2013-10-29, 02:18:05,VALID,919.026,VALID,0,VALID,97.1833,VALID,0,VALID,18.9438,VALID,135,VALID,0,
2013-10-29, 02:19:05,VALID,919.061,VALID,0,VALID,97.1833,VALID,0,VALID,18.9452,VALID,141,VALID,0,
2013-10-29, 02:20:05,VALID,919.053,VALID,0,VALID,97.1909,VALID,0,VALID,18.9229,VALID,140,VALID,0,
2013-10-29, 02:21:05,VALID,919.03,VALID,0,VALID,97.2062,VALID,0.107441,VALID,18.8839,VALID,131,VALID,0,
2013-10-29, 02:22:05,VALID,919.055,VALID,0,VALID,97.1986,VALID,0.107441,VALID,18.8644,VALID,139,VALID,0,
2013-10-29, 02:23:04,VALID,919.029,VALID,0,VALID,97.2138,VALID,0.107441,VALID,18.8644,VALID,132,VALID,0,
2013-10-29, 02:24:04,VALID,919.028,VALID,0,VALID,97.2062,VALID,0.107441,VALID,18.8254,VALID,132,VALID,0,
2013-10-29, 02:25:04,VALID,919.033,VALID,0,VALID,97.2214,VALID,0.107441,VALID,18.8059,VALID,133,VALID,0,
2013-10-29, 02:26:04,VALID,919.008,VALID,0,VALID,97.2062,VALID,0,VALID,18.8644,VALID,142,VALID,0,
2013-10-29, 02:27:04,VALID,919.018,VALID,0,VALID,97.1986,VALID,0.107441,VALID,18.8839,VALID,143,VALID,0,
2013-10-29, 02:28:04,VALID,919.014,VALID,0,VALID,97.2138,VALID,0,VALID,18.8839,VALID,138,VALID,0,
2013-10-29, 02:29:04,VALID,919.038,VALID,0,VALID,97.2138,VALID,0.107441,VALID,18.9034,VALID,145,VALID,0,
2013-10-29, 02:30:04,VALID,919.014,VALID,0,VALID,97.1986,VALID,0,VALID,18.9019,VALID,135,VALID,0,
2013-10-29, 02:31:04,VALID,919.034,VALID,0,VALID,97.2214,VALID,0,VALID,18.9229,VALID,133,VALID,0,
2013-10-29, 02:32:04,VALID,919.007,VALID,0,VALID,97.2062,VALID,0,VALID,18.9229,VALID,137,VALID,0,
2013-10-29, 02:33:04,VALID,919.048,VALID,0,VALID,97.2214,VALID,0,VALID,18.9034,VALID,128,VALID,0,
2013-10-29, 02:34:04,VALID,919.05,VALID,0,VALID,97.2062,VALID,0,VALID,18.9034,VALID,131,VALID,0,
2013-10-29, 02:35:04,VALID,919.037,VALID,0,VALID,97.2138,VALID,0,VALID,18.8463,VALID,127,VALID,0,
2013-10-29, 02:36:04,VALID,919.038,VALID,0,VALID,97.229,VALID,0,VALID,18.8463,VALID,127,VALID,0,
2013-10-29, 02:37:04,VALID,919.044,VALID,0,VALID,97.2214,VALID,0,VALID,18.8463,VALID,128,VALID,0,
2013-10-29, 02:38:04,VALID,919.036,VALID,0,VALID,97.2367,VALID,0,VALID,18.8268,VALID,132,VALID,0,
2013-10-29, 02:39:04,VALID,919.036,VALID,0,VALID,97.2367,VALID,0,VALID,18.8463,VALID,144,VALID,0,
2013-10-29, 02:40:04,VALID,919.032,VALID,0,VALID,97.2443,VALID,0,VALID,18.8268,VALID,130,VALID,0,
2013-10-29, 02:41:04,VALID,919.016,VALID,0,VALID,97.2367,VALID,0,VALID,18.8477,VALID,138,VALID,0,
2013-10-29, 02:42:04,VALID,919.022,VALID,0,VALID,97.2443,VALID,0,VALID,18.8073,VALID,145,VALID,0,
2013-10-29, 02:43:04,VALID,918.992,VALID,0,VALID,97.2367,VALID,0,VALID,18.8268,VALID,146,VALID,0,
2013-10-29, 02:44:04,VALID,919.019,VALID,0,VALID,97.2443,VALID,0,VALID,18.8073,VALID,128,VALID,0,
2013-10-29, 02:45:04,VALID,918.981,VALID,0,VALID,97.2367,VALID,0,VALID,18.8073,VALID,144,VALID,0,
2013-10-29, 02:46:04,VALID,918.975,VALID,0,VALID,97.2443,VALID,0,VALID,18.8073,VALID,138,VALID,0,
2013-10-29, 02:47:04,VALID,918.992,VALID,0,VALID,97.2519,VALID,0,VALID,18.7878,VALID,115,VALID,0,
2013-10-29, 02:48:04,VALID,918.997,VALID,0,VALID,97.2443,VALID,0,VALID,18.8073,VALID,118,VALID,0,
2013-10-29, 02:49:04,VALID,918.99,VALID,0,VALID,97.2443,VALID,0,VALID,18.8073,VALID,133,VALID,0,
2013-10-29, 02:50:04,VALID,918.987,VALID,0,VALID,97.2367,VALID,0,VALID,18.7878,VALID,159,VALID,0,
2013-10-29, 02:51:04,VALID,918.982,VALID,0,VALID,97.229,VALID,0,VALID,18.7683,VALID,129,VALID,0,
2013-10-29, 02:52:04,VALID,918.982,VALID,0,VALID,97.2367,VALID,0,VALID,18.7683,VALID,127,VALID,0,
2013-10-29, 02:53:04,VALID,918.959,VALID,0,VALID,97.2672,VALID,0,VALID,18.7488,VALID,134,VALID,0,
2013-10-29, 02:54:04,VALID,918.972,VALID,0,VALID,97.229,VALID,0,VALID,18.7488,VALID,131,VALID,0,
2013-10-29, 02:55:04,VALID,918.961,VALID,0,VALID,97.2748,VALID,0,VALID,18.7488,VALID,163,VALID,0,
2013-10-29, 02:56:04,VALID,918.965,VALID,0,VALID,97.2519,VALID,0,VALID,18.7488,VALID,161,VALID,0,
2013-10-29, 02:57:04,VALID,918.979,VALID,0,VALID,97.229,VALID,0,VALID,18.7683,VALID,159,VALID,0,
2013-10-29, 02:58:04,VALID,918.947,VALID,0,VALID,97.2443,VALID,0,VALID,18.7488,VALID,151,VALID,0,
2013-10-29, 02:59:04,VALID,918.941,VALID,0,VALID,97.229,VALID,0,VALID,18.7293,VALID,146,VALID,0,
2013-10-29, 03:00:04,VALID,918.942,VALID,0,VALID,97.2367,VALID,0,VALID,18.7503,VALID,144,VALID,0,
2013-10-29, 03:01:04,VALID,918.967,VALID,0,VALID,97.2443,VALID,0,VALID,18.7098,VALID,153,VALID,0,
2013-10-29, 03:02:04,VALID,918.982,VALID,0,VALID,97.2367,VALID,0,VALID,18.7098,VALID,162,VALID,0,
2013-10-29, 03:03:04,VALID,918.96,VALID,0,VALID,97.2443,VALID,0,VALID,18.6903,VALID,146,VALID,0,
2013-10-29, 03:04:04,VALID,918.944,VALID,0,VALID,97.2443,VALID,0,VALID,18.6708,VALID,167,VALID,0,
2013-10-29, 03:05:04,VALID,918.943,VALID,0,VALID,97.2519,VALID,0,VALID,18.6708,VALID,139,VALID,0,
2013-10-29, 03:06:04,VALID,918.935,VALID,0,VALID,97.2443,VALID,0,VALID,18.6708,VALID,163,VALID,0,
2013-10-29, 03:07:04,VALID,918.934,VALID,0,VALID,97.2214,VALID,0,VALID,18.6708,VALID,164,VALID,0,
2013-10-29, 03:08:04,VALID,918.911,VALID,0,VALID,97.229,VALID,0,VALID,18.6903,VALID,176,VALID,0,
2013-10-29, 03:09:04,VALID,918.922,VALID,0,VALID,97.2367,VALID,0,VALID,18.6903,VALID,153,VALID,0,
2013-10-29, 03:10:04,VALID,918.92,VALID,0,VALID,97.229,VALID,0,VALID,18.6903,VALID,161,VALID,0,
2013-10-29, 03:11:04,VALID,918.914,VALID,0,VALID,97.2138,VALID,0,VALID,18.6903,VALID,164,VALID,0,
2013-10-29, 03:12:04,VALID,918.924,VALID,0,VALID,97.2138,VALID,0,VALID,18.7293,VALID,158,VALID,0,
2013-10-29, 03:13:04,VALID,918.893,VALID,0,VALID,97.229,VALID,0,VALID,18.7098,VALID,147,VALID,0,
2013-10-29, 03:14:04,VALID,918.923,VALID,0,VALID,97.2214,VALID,0,VALID,18.7098,VALID,143,VALID,0,
2013-10-29, 03:15:04,VALID,918.916,VALID,0,VALID,97.2062,VALID,0,VALID,18.7098,VALID,140,VALID,0,
2013-10-29, 03:16:04,VALID,918.92,VALID,0,VALID,97.2138,VALID,0,VALID,18.7098,VALID,139,VALID,0,
2013-10-29, 03:17:04,VALID,918.921,VALID,0,VALID,97.2062,VALID,0,VALID,18.6903,VALID,129,VALID,0,
2013-10-29, 03:18:04,VALID,918.915,VALID,0,VALID,97.1986,VALID,0,VALID,18.6903,VALID,128,VALID,0,
2013-10-29, 03:19:04,VALID,918.928,VALID,0,VALID,97.1909,VALID,0,VALID,18.6903,VALID,136,VALID,0,
2013-10-29, 03:20:04,VALID,918.906,VALID,0,VALID,97.1681,VALID,0.107441,VALID,18.7084,VALID,137,VALID,0,
2013-10-29, 03:21:04,VALID,918.903,VALID,0,VALID,97.1681,VALID,0.107441,VALID,18.7279,VALID,132,VALID,0,
2013-10-29, 03:22:04,VALID,918.916,VALID,0,VALID,97.1528,VALID,0,VALID,18.6889,VALID,124,VALID,0,
2013-10-29, 03:23:04,VALID,918.882,VALID,0,VALID,97.1452,VALID,0,VALID,18.6889,VALID,133,VALID,0,
2013-10-29, 03:24:04,VALID,918.888,VALID,0,VALID,97.1299,VALID,0,VALID,18.7084,VALID,132,VALID,0,
2013-10-29, 03:25:04,VALID,918.865,VALID,0,VALID,97.1299,VALID,0,VALID,18.6889,VALID,138,VALID,0,
2013-10-29, 03:26:04,VALID,918.863,VALID,0,VALID,97.0842,VALID,0,VALID,18.7084,VALID,132,VALID,0,
2013-10-29, 03:27:04,VALID,918.865,VALID,0,VALID,97.0613,VALID,0,VALID,18.7474,VALID,143,VALID,0,
2013-10-29, 03:28:04,VALID,918.816,VALID,0,VALID,97.0613,VALID,0.107441,VALID,18.7279,VALID,144,VALID,0,
2013-10-29, 03:29:04,VALID,918.843,VALID,0,VALID,97.0385,VALID,0.107441,VALID,18.7474,VALID,143,VALID,0,
2013-10-29, 03:30:04,VALID,918.82,VALID,0,VALID,97.008,VALID,0.107441,VALID,18.7474,VALID,140,VALID,0,
2013-10-29, 03:31:04,VALID,918.826,VALID,0,VALID,97.0156,VALID,0,VALID,18.7279,VALID,140,VALID,0,
2013-10-29, 03:32:04,VALID,918.827,VALID,0,VALID,96.9927,VALID,0.107441,VALID,18.7084,VALID,138,VALID,0,
2013-10-29, 03:33:04,VALID,918.819,VALID,0,VALID,96.9927,VALID,0.107441,VALID,18.7084,VALID,148,VALID,0,
2013-10-29, 03:34:04,VALID,918.788,VALID,0,VALID,96.9775,VALID,0,VALID,18.7084,VALID,139,VALID,0,
2013-10-29, 03:35:04,VALID,918.775,VALID,0,VALID,96.9165,VALID,0,VALID,18.7293,VALID,140,VALID,0,
2013-10-29, 03:36:04,VALID,918.748,VALID,0,VALID,96.9241,VALID,0,VALID,18.7293,VALID,164,VALID,0,
2013-10-29, 03:37:04,VALID,918.732,VALID,0,VALID,96.9089,VALID,0,VALID,18.7293,VALID,147,VALID,0,
2013-10-29, 03:38:04,VALID,918.726,VALID,0,VALID,96.8555,VALID,0,VALID,18.7293,VALID,159,VALID,0,
2013-10-29, 03:39:04,VALID,918.742,VALID,0,VALID,96.8403,VALID,0,VALID,18.7098,VALID,145,VALID,0,
2013-10-29, 03:40:04,VALID,918.721,VALID,0,VALID,96.8326,VALID,0,VALID,18.7293,VALID,138,VALID,0,
2013-10-29, 03:41:04,VALID,918.716,VALID,0,VALID,96.8021,VALID,0,VALID,18.7308,VALID,137,VALID,0,
2013-10-29, 03:42:04,VALID,918.703,VALID,0,VALID,96.7716,VALID,0,VALID,18.7098,VALID,137,VALID,0,
2013-10-29, 03:43:04,VALID,918.731,VALID,0,VALID,96.764,VALID,0,VALID,18.7098,VALID,140,VALID,0,
2013-10-29, 03:44:04,VALID,918.725,VALID,0,VALID,96.7335,VALID,0,VALID,18.7098,VALID,140,VALID,0,
2013-10-29, 03:45:04,VALID,918.755,VALID,0,VALID,96.7107,VALID,0,VALID,18.7098,VALID,121,VALID,0,
2013-10-29, 03:46:04,VALID,918.735,VALID,0,VALID,96.6725,VALID,0,VALID,18.6903,VALID,122,VALID,0,
2013-10-29, 03:47:04,VALID,918.726,VALID,0,VALID,96.642,VALID,0,VALID,18.6903,VALID,122,VALID,0,
2013-10-29, 03:48:04,VALID,918.744,VALID,0,VALID,96.6192,VALID,0,VALID,18.6903,VALID,122,VALID,0,
2013-10-29, 03:49:04,VALID,918.736,VALID,0,VALID,96.5887,VALID,0,VALID,18.6708,VALID,128,VALID,0,
2013-10-29, 03:50:04,VALID,918.766,VALID,0,VALID,96.5658,VALID,0,VALID,18.6903,VALID,140,VALID,0,
2013-10-29, 03:51:04,VALID,918.763,VALID,0,VALID,96.5277,VALID,0,VALID,18.7113,VALID,132,VALID,0,
2013-10-29, 03:52:04,VALID,918.712,VALID,0,VALID,96.5124,VALID,0,VALID,18.6903,VALID,147,VALID,0,
2013-10-29, 03:53:04,VALID,918.723,VALID,0,VALID,96.4667,VALID,0,VALID,18.7098,VALID,150,VALID,0,
2013-10-29, 03:54:04,VALID,918.731,VALID,0,VALID,96.4591,VALID,0,VALID,18.7098,VALID,152,VALID,0,
2013-10-29, 03:55:04,VALID,918.728,VALID,0,VALID,96.4362,VALID,0,VALID,18.7293,VALID,142,VALID,0,
2013-10-29, 03:56:04,VALID,918.726,VALID,0,VALID,96.4286,VALID,0,VALID,18.7683,VALID,152,VALID,0,
2013-10-29, 03:57:04,VALID,918.684,VALID,0,VALID,96.3981,VALID,0,VALID,18.7683,VALID,154,VALID,0,
2013-10-29, 03:58:04,VALID,918.712,VALID,0,VALID,96.3447,VALID,0,VALID,18.7683,VALID,166,VALID,0,
2013-10-29, 03:59:04,VALID,918.697,VALID,0,VALID,96.3142,VALID,0,VALID,18.7683,VALID,151,VALID,0,